Rionegro, Colombia

11:28 PM COT on February 23, 2017 (GMT -0500)
Jose Maria Cordova

Weather History for SKRG - January, 2013

Change the Weather History Date:

Saturday, January 5, 2013

  Actual Average Record
Temperature  
Mean Temperature 64 °F -  
Max Temperature 73 °F 68 °F 78 °F (1998)
Min Temperature 56 °F 53 °F 48 °F (1998)
Growing Degree Days 14 (Base 50)    
Moisture  
Dew Point 55 °F    
Average Humidity 75    
Maximum Humidity 95    
Minimum Humidity 40    
Precipitation  
Precipitation 0.00 in - - ()
Sea Level Pressure  
Sea Level Pressure 30.26 in    
Wind  
Wind Speed 6 mph ()    
Max Wind Speed 14 mph    
Max Gust Speed -    
Visibility 6.4 miles    
Events Fog    
Averages and records for this station are not official NWS values.
T = Trace of Precipitation, MM = Missing Value Source: Averaged Metar Reports

Daily Weather History Graph

Daily Weather History Graph

Search for Another Location

Airport or City:

Trip Planner

Search our weather history database for the weather conditions in past years. The results will help you decide how hot, cold, wet, or windy it might be!

Date:

Astronomy

Jan. 05, 2013 Rise Set
Actual Time 6:13 AM COT 6:00 PM COT
Civil Twilight 5:51 AM COT 6:23 PM COT
Nautical Twilight 5:25 AM COT 6:49 PM COT
Astronomical Twilight 4:59 AM COT 7:15 PM COT
Moon No Moon Rise 12:14 PM COT (1/5)
Length of Visible Light 12h 31m
Length of Day
11h 46m
Last Quarter, 44% of the Moon is Illuminated
Jan 5
Last Quarter
Jan 11
New
Jan 18
First Quarter
Jan 26
Full
Feb 3
Last Quarter

Hourly Weather History & Observations

Time (COT) Temp. Dew Point Humidity Pressure Visibility Wind Dir Wind Speed Gust Speed Precip Events Conditions
12:00 AM 60.8 °F 57.2 °F 88% 30.28 in 5.0 mi North 4.6 mph - N/A   Mostly Cloudy
1:00 AM 60 °F 58 °F 90%  in 5 mi North 4.5 mph - -   Haze
1:00 AM 60.8 °F 57.2 °F 88% 30.28 in 5.0 mi North 4.6 mph - N/A   Mostly Cloudy
2:00 AM 59.0 °F 57.2 °F 94% 30.25 in 5.6 mi Variable 2.3 mph - N/A Fog Fog
3:00 AM 57.2 °F 55.4 °F 94% 30.25 in 5.0 mi North 4.6 mph - N/A Fog Fog
4:00 AM 57 °F 56 °F 95%  in 4 mi North 4.5 mph - - Fog Light Fog
4:00 AM 57.2 °F 55.4 °F 94% 30.23 in 4.3 mi North 4.6 mph - N/A Fog Fog
5:00 AM 57.2 °F 55.4 °F 94% 30.24 in 4.3 mi North 5.8 mph - N/A Fog Fog
5:30 AM 57.2 °F 55.4 °F 94% 30.25 in 4.3 mi WNW 5.8 mph - N/A Fog Fog
6:00 AM 57.2 °F 55.4 °F 94% 30.27 in 4.3 mi Calm Calm - N/A Fog Fog
7:00 AM 58 °F 55 °F 87%  in 9 mi North 4.5 mph - -   Haze
7:00 AM 57.2 °F 55.4 °F 94% 30.29 in 6.2 mi North 4.6 mph - N/A   Scattered Clouds
8:00 AM 60.8 °F 57.2 °F 88% 30.31 in 6.2 mi NNE 4.6 mph - N/A   Scattered Clouds
9:00 AM 66.2 °F 53.6 °F 64% 30.32 in 6.2 mi East 11.5 mph - N/A   Scattered Clouds
10:00 AM 67 °F 54 °F 54%  in 12 mi ESE 11.2 mph - -   Haze
10:00 AM 68.0 °F 53.6 °F 60% 30.32 in 6.2 mi ESE 11.5 mph - N/A   Scattered Clouds
11:00 AM 71.6 °F 50.0 °F 46% 30.30 in 6.2 mi East 11.5 mph - N/A   Partly Cloudy
12:00 PM 71.6 °F 51.8 °F 50% 30.27 in 6.2 mi ESE 11.5 mph - N/A   Scattered Clouds
1:00 PM 71 °F 52 °F 41%  in 12 mi East 11.2 mph - -   Haze
1:00 PM 71.6 °F 51.8 °F 50% 30.26 in 6.2 mi East 11.5 mph - N/A   Partly Cloudy
2:00 PM 71.6 °F 53.6 °F 53% 30.23 in 6.2 mi East 11.5 mph - N/A   Partly Cloudy
3:00 PM 71.6 °F 53.6 °F 53% 30.20 in 6.2 mi East 11.5 mph - N/A   Partly Cloudy
4:00 PM 72 °F 53 °F 40%  in 12 mi East 11.2 mph - -   Haze
4:00 PM 73.4 °F 51.8 °F 47% 30.20 in 6.2 mi East 11.5 mph - N/A   Partly Cloudy
5:00 PM 71.6 °F 51.8 °F 50% 30.19 in 6.2 mi East 6.9 mph - N/A   Scattered Clouds
6:00 PM 68.0 °F 57.2 °F 68% 30.20 in 6.2 mi East 13.8 mph - N/A   Mostly Cloudy
7:00 PM 64 °F 56 °F 70%  in 12 mi East 11.2 mph - -   Haze
7:00 PM 64.4 °F 57.2 °F 77% 30.25 in 6.2 mi East 11.5 mph - N/A   Mostly Cloudy
8:00 PM 62.6 °F 59.0 °F 88% 30.27 in 6.2 mi NE 6.9 mph - N/A   Mostly Cloudy
9:00 PM 60.8 °F 59.0 °F 94% 30.28 in 6.2 mi Variable 2.3 mph - N/A   Mostly Cloudy
10:00 PM 61 °F 59 °F 90%  in 5 mi Calm Calm - -   Haze
10:00 PM 60.8 °F 59.0 °F 94% 30.30 in 5.0 mi Calm Calm - N/A   Mostly Cloudy
11:00 PM 60.8 °F 59.0 °F 94% 30.29 in 5.0 mi Calm Calm - N/A   Mostly Cloudy